FW6744 Weather Reports


time (UTC)temp
C
wind
direction
speed
KPH
gust
KPH
rain 1hr
cm
rain 24hr
cm
rain mn
cm
humidity
%
barometer
mb
20260902163522 33 61 0.0 3.2 0.00 0.00 0.00 61 1013.7
20260902163017 33 187 0.0 3.2 0.00 0.00 0.00 61 1013.7
20260902162512 33 204 0.0 3.2 0.00 0.00 0.00 63 1013.7
20260902162005 33 126 0.0 1.6 0.00 0.00 0.00 65 1013.7
20260902161725 32 213 0.0 1.6 0.00 0.00 0.00 66 1013.7
20260902160953 32 231 1.6 4.8 0.00 0.00 0.00 65 1013.8
20260902160447 32 4 1.6 8.0 0.00 0.00 0.00 66 1013.8
20260902160205 32 32 0.0 8.0 0.00 0.00 0.00 66 1013.9
20260902155435 31 32 0.0 3.2 0.00 0.00 0.00 66 1014.0
20260902155420 31 28 0.0 3.2 0.00 0.00 0.00 69 1014.0
20260902154422 31 25 0.0 3.2 0.00 0.00 0.00 68 1014.0
20260902153917 31 234 0.0 1.6 0.00 0.00 0.00 69 1013.9
20260902153411 31 222 0.0 1.6 0.00 0.00 0.00 69 1013.9
20260902152905 30 219 0.0 1.6 0.00 0.00 0.00 70 1013.9
20260902152400 30 124 0.0 1.6 0.00 0.00 0.00 70 1013.9
20260902151853 30 124 0.0 1.6 0.00 0.00 0.00 71 1014.0
20260902151353 30 129 0.0 3.2 0.00 0.00 0.00 72 1014.0
20260902151119 30 248 0.0 3.2 0.00 0.00 0.00 71 1014.1
20260902150353 30 39 0.0 4.8 0.00 0.00 0.00 72 1014.1
20260902145851 30 39 0.0 4.8 0.00 0.00 0.00 72 1014.1
20260902145355 29 30 0.0 3.2 0.00 0.00 0.00 73 1014.1
20260902144851 29 38 0.0 1.6 0.00 0.00 0.00 75 1014.2
20260902144349 29 38 0.0 1.6 0.00 0.00 0.00 76 1014.3
20260902144104 29 38 0.0 1.6 0.00 0.00 0.00 76 1014.2
20260902143609 28 28 0.0 1.6 0.00 0.00 0.00 77 1014.2
20260902142843 28 27 0.0 1.6 0.00 0.00 0.00 79 1014.1
20260902142342 28 27 0.0 0.0 0.00 0.00 0.00 80 1014.1
20260902141843 28 27 0.0 0.0 0.00 0.00 0.00 78 1014.1
20260902141341 28 27 0.0 3.2 0.00 0.00 0.00 79 1014.0
20260902140843 28 27 1.6 3.2 0.00 0.00 0.00 79 1014.0
20260902140339 28 27 1.6 3.2 0.00 0.00 0.00 79 1014.0
20260902135837 27 216 0.0 1.6 0.00 0.00 0.00 82 1013.9
20260902135338 27 221 0.0 0.0 0.00 0.00 0.00 83 1013.8
20260902134839 27 70 0.0 0.0 0.00 0.00 0.00 85 1013.8
20260902134338 27 70 0.0 0.0 0.00 0.00 0.00 84 1013.8
20260902133837 26 70 0.0 0.0 0.00 0.00 0.00 85 1013.7
20260902133338 26 70 0.0 0.0 0.00 0.00 0.00 85 1013.8
20260902132837 26 75 0.0 0.0 0.00 0.00 0.00 86 1013.8
20260902132339 26 77 0.0 0.0 0.00 0.00 0.00 87 1013.7
20260902131838 26 77 0.0 0.0 0.00 0.00 0.00 87 1013.7
20260902131602 26 77 0.0 0.0 0.00 0.00 0.00 87 1013.8
20260902131328 25 77 0.0 0.0 0.00 0.00 0.00 88 1013.7
20260902130339 25 77 0.0 0.0 0.00 0.00 0.00 87 1013.8
20260902125839 25 77 0.0 0.0 0.00 0.00 0.00 88 1013.8
20260902125339 25 77 0.0 0.0 0.00 0.00 0.00 88 1013.8
20260902124837 25 77 0.0 0.0 0.00 0.00 0.00 88 1013.7
20260902124338 25 77 0.0 0.0 0.00 0.00 0.00 87 1013.6
20260902123839 25 77 0.0 0.0 0.00 0.00 0.00 87 1013.6
20260902123331 25 77 0.0 0.0 0.00 0.00 0.00 87 1013.6
20260902122826 25 77 0.0 0.0 0.00 0.00 0.00 87 1013.5
20260902122320 25 77 0.0 1.6 0.00 0.00 0.00 88 1013.6
20260902121814 25 77 0.0 1.6 0.00 0.00 0.00 88 1013.6
20260902121536 25 80 0.0 0.0 0.00 0.00 0.00 90 1013.5
20260902120812 25 80 0.0 0.0 0.00 0.00 0.00 90 1013.6
20260902120310 25 80 0.0 0.0 0.00 0.00 0.00 91 1013.6
20260902115807 25 80 0.0 0.0 0.00 0.00 0.00 91 1013.6
20260902115309 25 80 0.0 0.0 0.00 0.00 0.00 91 1013.5
20260902114809 24 80 0.0 0.0 0.00 0.00 0.00 90 1013.5
20260902114532 24 80 0.0 0.0 0.00 0.00 0.00 90 1013.4
20260902113807 24 80 0.0 0.0 0.00 0.00 0.00 90 1013.5
20260902113305 24 80 0.0 0.0 0.00 0.00 0.00 90 1013.5
20260902112802 24 80 0.0 0.0 0.00 0.00 0.00 90 1013.5
20260902112305 24 80 0.0 0.0 0.00 0.00 0.00 90 1013.6
20260902111802 24 80 0.0 0.0 0.00 0.00 0.00 90 1013.5
20260902111301 24 80 0.0 0.0 0.00 0.00 0.00 90 1013.5
20260902110758 24 80 0.0 0.0 0.00 0.00 0.00 90 1013.5
20260902110255 24 80 0.0 0.0 0.00 0.00 0.00 89 1013.5
20260902105753 24 80 0.0 0.0 0.00 0.00 0.00 89 1013.5
20260902105255 24 80 0.0 0.0 0.00 0.00 0.00 89 1013.4
20260902104753 24 80 0.0 0.0 0.00 0.00 0.00 89 1013.3
20260902104251 24 80 0.0 0.0 0.00 0.00 0.00 89 1013.3
20260902104016 24 80 0.0 0.0 0.00 0.00 0.00 89 1013.3
20260902103503 25 80 0.0 0.0 0.00 0.00 0.00 89 1013.2
20260902103010 25 80 0.0 0.0 0.00 0.00 0.00 89 1013.2
20260902102233 25 80 0.0 0.0 0.00 0.00 0.00 89 1013.2
20260902101728 25 80 0.0 1.6 0.00 0.00 0.00 89 1013.1
20260902101710 25 80 0.0 1.6 0.00 0.00 0.00 89 1013.1
20260902100716 25 80 0.0 0.0 0.00 0.00 0.00 89 1013.0
20260902100210 25 80 0.0 0.0 0.00 0.00 0.00 89 1012.8
20260902095704 25 80 0.0 0.0 0.00 0.00 0.00 89 1012.9
20260902095157 25 79 0.0 0.0 0.00 0.00 0.00 89 1012.8
20260902094652 25 80 0.0 0.0 0.00 0.00 0.00 89 1012.8
20260902094146 25 80 0.0 0.0 0.00 0.00 0.00 89 1012.8
20260902093640 25 80 0.0 0.0 0.00 0.00 0.00 89 1012.8
20260902093134 25 80 0.0 0.0 0.00 0.00 0.00 89 1012.9
20260902092629 25 80 0.0 0.0 0.00 0.00 0.00 89 1012.8
20260902092123 25 80 0.0 0.0 0.00 0.00 0.00 89 1012.8
20260902091616 25 80 0.0 0.0 0.00 0.00 0.00 89 1012.8
20260902091110 25 80 0.0 0.0 0.00 0.00 0.00 89 1012.8
20260902090604 25 80 0.0 0.0 0.00 0.00 0.00 89 1012.7
20260902090058 25 80 0.0 0.0 0.00 0.00 0.00 89 1012.7
20260902085815 24 80 0.0 0.0 0.00 0.00 0.00 89 1012.7
20260902085046 24 80 0.0 0.0 0.00 0.00 0.00 89 1012.7
20260902084540 24 80 0.0 0.0 0.00 0.00 0.00 89 1012.8
20260902084033 24 80 0.0 0.0 0.00 0.00 0.00 90 1012.8
20260902083528 24 80 0.0 0.0 0.00 0.00 0.00 90 1012.8
20260902083240 24 80 0.0 1.6 0.00 0.00 0.00 90 1012.7
20260902082517 24 80 0.0 1.6 0.00 0.00 0.00 91 1012.6
20260902082010 24 80 0.0 0.0 0.00 0.00 0.00 91 1012.7
20260902081504 24 80 0.0 0.0 0.00 0.00 0.00 91 1012.6
20260902080958 24 80 0.0 0.0 0.00 0.00 0.00 91 1012.5
20260902080934 24 80 0.0 0.0 0.00 0.00 0.00 91 1012.5
20260902080211 24 80 0.0 0.0 0.00 0.00 0.00 91 1012.5
20260902075920 24 80 0.0 0.0 0.00 0.00 0.00 91 1012.6
20260902074934 24 80 0.0 0.0 0.00 0.00 0.00 91 1012.5
20260902074646 24 80 0.0 0.0 0.00 0.00 0.00 91 1012.5
20260902073922 24 80 0.0 0.0 0.00 0.00 0.00 91 1012.5
20260902073416 24 80 0.0 0.0 0.00 0.00 0.00 91 1012.5
20260902072910 24 80 0.0 0.0 0.00 0.00 0.00 91 1012.5
20260902072404 24 80 0.0 0.0 0.00 0.00 0.00 91 1012.6
20260902071858 24 80 0.0 0.0 0.00 0.00 0.00 91 1012.6
20260902071624 24 80 0.0 0.0 0.00 0.00 0.00 91 1012.6
20260902070846 24 80 0.0 0.0 0.00 0.00 0.00 91 1012.6
20260902070340 24 80 0.0 0.0 0.00 0.00 0.00 91 1012.6
20260902065834 24 80 0.0 0.0 0.00 0.00 0.00 91 1012.6
20260902065328 24 80 0.0 0.0 0.00 0.00 0.00 91 1012.6
20260902065042 24 80 0.0 0.0 0.00 0.00 0.00 91 1012.5
20260902064316 24 80 0.0 0.0 0.00 0.00 0.00 91 1012.5
20260902063810 24 80 0.0 0.0 0.00 0.00 0.00 91 1012.5
20260902063304 24 80 0.0 0.0 0.00 0.00 0.00 91 1012.4
20260902062801 24 80 0.0 0.0 0.00 0.00 0.00 90 1012.4
20260902062301 24 80 0.0 0.0 0.00 0.00 0.00 90 1012.4
20260902061800 24 80 0.0 0.0 0.00 0.00 0.00 90 1012.4
20260902061257 24 80 0.0 0.0 0.00 0.00 0.00 90 1012.4
20260902060757 24 80 0.0 0.0 0.00 0.00 0.00 90 1012.5
20260902060253 24 80 0.0 0.0 0.00 0.00 0.00 90 1012.5
20260902055752 24 80 0.0 0.0 0.00 0.00 0.00 90 1012.3
20260902055250 24 80 0.0 0.0 0.00 0.00 0.00 90 1012.3
20260902054749 24 80 0.0 0.0 0.00 0.00 0.00 90 1012.3
20260902054247 25 80 0.0 0.0 0.00 0.00 0.00 90 1012.3
20260902053742 25 80 0.0 0.0 0.00 0.00 0.00 89 1012.3
20260902053242 25 80 0.0 0.0 0.00 0.00 0.00 89 1012.3
20260902052740 25 80 0.0 0.0 0.00 0.00 0.00 89 1012.4
20260902052237 25 80 0.0 0.0 0.00 0.00 0.00 89 1012.4
20260902051941 25 80 0.0 0.0 0.00 0.00 0.00 89 1012.5
20260902051823 25 80 0.0 0.0 0.00 0.00 0.00 89 1012.5
20260902050732 25 80 0.0 0.0 0.00 0.00 0.00 88 1012.5
20260902050230 25 80 0.0 0.0 0.00 0.00 0.00 88 1012.5
20260902045726 25 80 0.0 0.0 0.00 0.00 0.00 88 1012.5
20260902045226 25 80 0.0 0.0 0.00 0.00 0.00 88 1012.5
20260902044726 25 80 0.0 0.0 0.00 0.00 0.00 87 1012.4
20260902044225 25 80 0.0 0.0 0.00 0.00 0.00 87 1012.3
20260902043724 25 80 0.0 0.0 0.00 0.00 0.00 87 1012.3
20260902043223 25 80 0.0 0.0 0.00 0.00 0.00 87 1012.2
20260902042723 25 80 0.0 0.0 0.00 0.00 0.00 87 1012.2
20260902042224 25 80 0.0 0.0 0.00 0.00 0.00 86 1012.2
20260902041723 25 80 0.0 0.0 0.00 0.00 0.00 86 1012.1
20260902041223 26 80 0.0 0.0 0.00 0.00 0.00 86 1012.1
20260902040723 26 80 0.0 0.0 0.00 0.00 0.00 86 1012.1
20260902040222 26 80 0.0 0.0 0.00 0.00 0.00 86 1012.1
20260902035724 26 80 0.0 0.0 0.00 0.00 0.00 86 1012.1
20260902035218 26 80 0.0 0.0 0.00 0.00 0.00 86 1012.0
20260902034713 26 80 0.0 0.0 0.00 0.00 0.00 86 1012.0
20260902034206 26 80 0.0 0.0 0.00 0.00 0.00 86 1011.8
20260902033925 26 80 0.0 0.0 0.00 0.00 0.00 86 1011.8
20260902033413 26 80 0.0 0.0 0.00 0.00 0.00 85 1011.7
20260902032915 26 80 0.0 0.0 0.00 0.00 0.00 85 1011.7
20260902032143 26 80 0.0 0.0 0.00 0.00 0.00 84 1011.6
20260902031636 26 80 0.0 0.0 0.00 0.00 0.00 85 1011.7
20260902031346 26 80 0.0 0.0 0.00 0.00 0.00 84 1011.7
20260902031115 26 80 0.0 0.0 0.00 0.00 0.00 84 1011.7
20260902030117 26 80 0.0 0.0 0.00 0.00 0.00 84 1011.7
20260902025612 26 80 0.0 0.0 0.00 0.00 0.00 83 1011.8
20260902025106 26 80 0.0 0.0 0.00 0.00 0.00 84 1011.7
20260902024559 26 80 0.0 0.0 0.00 0.00 0.00 84 1011.7
20260902024054 26 80 0.0 0.0 0.00 0.00 0.00 83 1011.8
20260902023554 26 80 0.0 0.0 0.00 0.00 0.00 82 1011.7
20260902023051 26 80 0.0 0.0 0.00 0.00 0.00 82 1011.7
20260902022550 26 80 0.0 0.0 0.00 0.00 0.00 82 1011.8
20260902022046 26 80 0.0 0.0 0.00 0.00 0.00 82 1011.7
20260902021548 26 80 0.0 0.0 0.00 0.00 0.00 82 1011.7
20260902021306 26 80 0.0 0.0 0.00 0.00 0.00 81 1011.7
20260902020541 27 80 0.0 0.0 0.00 0.00 0.00 81 1011.8
20260902020039 27 80 0.0 0.0 0.00 0.00 0.00 81 1011.7
20260902015540 27 80 0.0 0.0 0.00 0.00 0.00 80 1011.6
20260902015039 27 80 0.0 0.0 0.00 0.00 0.00 80 1011.6
20260902014538 27 80 0.0 0.0 0.00 0.00 0.00 80 1011.4
20260902014035 27 80 0.0 0.0 0.00 0.00 0.00 80 1011.4
20260902013535 27 80 0.0 0.0 0.00 0.00 0.00 80 1011.3
20260902013034 27 80 0.0 0.0 0.00 0.00 0.00 80 1011.1
20260902012533 27 80 0.0 0.0 0.00 0.00 0.00 80 1011.1
20260902012031 27 80 0.0 0.0 0.00 0.00 0.00 80 1011.1
20260902011531 27 80 0.0 0.0 0.00 0.00 0.00 80 1011.1
20260902011030 27 80 0.0 0.0 0.00 0.00 0.00 79 1011.0
20260902010530 27 80 0.0 0.0 0.00 0.00 0.00 79 1010.9
20260902010252 27 80 0.0 0.0 0.00 0.00 0.00 78 1010.9
20260902005527 28 80 0.0 0.0 0.00 0.00 0.00 77 1010.9
20260902005459 28 80 0.0 0.0 0.00 0.00 0.00 77 1010.9
20260902004515 28 80 0.0 0.0 0.00 0.00 0.00 77 1010.9
20260902004009 28 80 0.0 0.0 0.00 0.00 0.00 76 1010.8
20260902003503 28 80 0.0 0.0 0.00 0.00 0.00 76 1010.7
20260902002957 28 80 0.0 0.0 0.00 0.00 0.00 75 1010.6
20260902002451 28 80 0.0 0.0 0.00 0.00 0.00 75 1010.5
20260902001945 28 80 0.0 0.0 0.00 0.00 0.00 74 1010.5
20260902001935 28 80 0.0 0.0 0.00 0.00 0.00 74 1010.5
20260902000941 29 80 0.0 0.0 0.00 0.00 0.00 73 1010.5
20260902000440 29 80 0.0 0.0 0.00 0.00 0.00 72 1010.5
20260901235942 29 80 0.0 0.0 0.00 0.00 0.00 71 1010.6
20260901235439 30 80 0.0 0.0 0.00 0.00 0.00 70 1010.5
20260901234940 30 80 0.0 0.0 0.00 0.00 0.00 70 1010.5
20260901234440 30 80 0.0 0.0 0.00 0.00 0.00 70 1010.5
20260901233939 30 80 0.0 0.0 0.00 0.00 0.00 69 1010.5
20260901233438 30 80 0.0 0.0 0.00 0.00 0.00 69 1010.5
20260901232938 30 80 0.0 0.0 0.00 0.00 0.00 68 1010.6
20260901232925 31 80 0.0 0.0 0.00 0.00 0.00 67 1010.6
20260901232417 31 80 0.0 0.0 0.00 0.00 0.00 66 1010.6
20260901231434 31 80 0.0 0.0 0.00 0.00 0.00 66 1010.7
20260901230936 31 80 0.0 0.0 0.00 0.00 0.00 65 1010.8
20260901230436 32 80 0.0 0.0 0.00 0.00 0.00 64 1010.8
20260901225935 32 80 0.0 1.6 0.00 0.00 0.00 62 1010.8
20260901225436 32 80 0.0 1.6 0.00 0.00 0.00 64 1010.8
20260901224936 32 80 0.0 0.0 0.00 0.00 0.00 64 1010.8
20260901224435 32 80 0.0 0.0 0.00 0.00 0.00 62 1010.9
20260901223936 32 80 0.0 0.0 0.00 0.00 0.00 62 1010.9
20260901223705 32 80 0.0 0.0 0.00 0.00 0.00 60 1010.8
20260901222935 33 80 0.0 0.0 0.00 0.00 0.00 60 1010.9
20260901222435 33 80 0.0 1.6 0.00 0.00 0.00 59 1011.0
20260901221934 33 80 0.0 1.6 0.00 0.00 0.00 58 1011.0
20260901221435 33 80 0.0 0.0 0.00 0.00 0.00 59 1011.0
20260901220936 33 80 0.0 1.6 0.00 0.00 0.00 58 1011.0
20260901220436 33 80 0.0 1.6 0.00 0.00 0.00 58 1011.1
20260901215935 33 49 0.0 1.6 0.00 0.00 0.00 57 1011.1
20260901215432 33 49 0.0 1.6 0.00 0.00 0.00 57 1011.1
20260901214927 34 49 0.0 1.6 0.00 0.00 0.00 57 1011.1
20260901214640 34 49 0.0 1.6 0.00 0.00 0.00 56 1011.1
20260901213915 35 49 0.0 1.6 0.00 0.00 0.00 54 1011.1
20260901213630 35 49 0.0 1.6 0.00 0.00 0.00 54 1011.1
20260901212903 35 51 0.0 1.6 0.00 0.00 0.00 53 1011.1
20260901212631 36 51 0.0 1.6 0.00 0.00 0.00 50 1011.1
20260901211850 36 55 0.0 4.8 0.00 0.00 0.00 51 1011.1
20260901211343 36 163 0.0 4.8 0.00 0.00 0.00 48 1011.2
20260901210837 36 53 0.0 3.2 0.00 0.00 0.00 51 1011.2
20260901210332 35 179 0.0 3.2 0.00 0.00 0.00 50 1011.3
20260901210055 35 31 0.0 3.2 0.00 0.00 0.00 49 1011.4
20260901205333 36 32 0.0 3.2 0.00 0.00 0.00 50 1011.3
20260901204837 36 30 1.6 3.2 0.00 0.00 0.00 49 1011.4
20260901204815 36 34 1.6 4.8 0.00 0.00 0.00 48 1011.4
20260901203831 37 209 1.6 8.0 0.00 0.00 0.00 45 1011.4
20260901203331 36 194 1.6 8.0 0.00 0.00 0.00 47 1011.4
20260901203056 36 204 1.6 4.8 0.00 0.00 0.00 48 1011.5
20260901202328 36 25 0.0 3.2 0.00 0.00 0.00 51 1011.5
20260901201830 36 345 0.0 3.2 0.00 0.00 0.00 48 1011.5
20260901201329 37 25 1.6 4.8 0.00 0.00 0.00 49 1011.6
20260901200828 37 188 1.6 4.8 0.00 0.00 0.00 49 1011.7
20260901200326 37 39 0.0 3.2 0.00 0.00 0.00 48 1011.7
20260901195826 37 32 0.0 3.2 0.00 0.00 0.00 49 1011.7
20260901195327 37 157 0.0 3.2 0.00 0.00 0.00 46 1011.8
20260901194821 37 169 0.0 3.2 0.00 0.00 0.00 47 1011.7
20260901194315 37 207 1.6 3.2 0.00 0.00 0.00 45 1011.8
20260901193809 37 32 0.0 3.2 0.00 0.00 0.00 48 1011.8
20260901193303 37 202 0.0 3.2 0.00 0.00 0.00 48 1011.8
20260901193017 37 36 0.0 3.2 0.00 0.00 0.00 47 1011.8
20260901192253 37 181 0.0 3.2 0.00 0.00 0.00 46 1011.9
20260901191752 37 132 0.0 3.2 0.00 0.00 0.00 47 1012.0
20260901191253 36 26 1.6 6.4 0.00 0.00 0.00 48 1012.0
20260901190754 36 202 1.6 6.4 0.00 0.00 0.00 48 1012.0
20260901190252 36 180 0.0 1.6 0.00 0.00 0.00 49 1012.2
20260901185751 36 172 0.0 0.0 0.00 0.00 0.00 50 1012.2
20260901185512 36 159 0.0 4.8 0.00 0.00 0.00 50 1012.2
20260901184747 36 159 0.0 4.8 0.00 0.00 0.00 50 1012.3
20260901184246 36 224 1.6 6.4 0.00 0.00 0.00 50 1012.3
20260901183747 35 37 1.6 6.4 0.00 0.00 0.00 52 1012.4
20260901183246 35 49 1.6 4.8 0.00 0.00 0.00 50 1012.4
20260901182747 36 41 1.6 4.8 0.00 0.00 0.00 50 1012.5
20260901182508 36 47 0.0 3.2 0.00 0.00 0.00 50 1012.6
20260901181749 36 30 0.0 3.2 0.00 0.00 0.00 49 1012.6
20260901181505 36 147 0.0 4.8 0.00 0.00 0.00 49 1012.5
20260901180742 36 155 0.0 4.8 0.00 0.00 0.00 46 1012.4
20260901180241 36 165 0.0 1.6 0.00 0.00 0.00 46 1012.3
20260901175741 37 40 0.0 3.2 0.00 0.00 0.00 47 1012.4
20260901175235 36 179 0.0 6.4 0.00 0.00 0.00 46 1012.3
20260901174729 36 166 1.6 6.4 0.00 0.00 0.00 47 1012.3
20260901174442 36 287 1.6 4.8 0.00 0.00 0.00 45 1012.3
20260901173943 36 333 0.0 4.8 0.00 0.00 0.00 45 1012.4
20260901173211 36 196 0.0 4.8 0.00 0.00 0.00 52 1012.3
20260901173200 36 130 1.6 4.8 0.00 0.00 0.00 49 1012.4
20260901172159 36 208 1.6 4.8 0.00 0.00 0.00 50 1012.4
20260901171653 35 173 1.6 4.8 0.00 0.00 0.00 51 1012.5
20260901171147 35 155 1.6 4.8 0.00 0.00 0.00 54 1012.5
20260901171128 35 175 0.0 3.2 0.00 0.00 0.00 55 1012.5
20260901170135 35 44 1.6 3.2 0.00 0.00 0.00 55 1012.4
20260901165629 35 69 1.6 4.8 0.00 0.00 0.00 52 1012.5
20260901165346 35 179 0.0 4.8 0.00 0.00 0.00 54 1012.7
20260901164617 35 164 0.0 3.2 0.00 0.00 0.00 57 1012.7
20260901164335 34 205 1.6 3.2 0.00 0.00 0.00 56 1012.8